Terminal Aerodrome Forecast
Issued by NWS Boston, MA

Home | Current Version | Previous Version | Text Only | Print | Product List | Glossary On
Versions: 1 2 3 4 5 6 7 8 9 10 11 12 13 14 15 16 17 18 19 20 21 22 23 24 25 26 27 28 29 30 31 32 33 34 35 36 37 38 39 40 41 42 43 44 45 46 47 48 49 50
000
FTUS41 KBOX 181120
TAFBOS
TAF
KBOS 181120Z 1812/1918 27014G24KT P6SM -RASN SCT025 OVC035
     FM181300 27015G25KT P6SM BKN035
     FM181900 29014G26KT P6SM SCT060
     FM190000 30011G22KT P6SM BKN025
     FM190200 30011G21KT P6SM SCT025
     FM191600 32010KT P6SM SCT200=

USA.gov is the U.S. government's official web portal to all federal, state and local government web resources and services.